Regional Weather Roundup
Issued by NWS

Home | Current Version | Previous Version | Text Only | Print | Product List | Glossary Off
Versions: 1 2 3 4 5 6 7 8 9 10 11 12 13 14 15 16 17 18 19 20 21 22 23 24 25 26 27 28 29 30 31 32 33 34 35 36 37 38 39 40 41 42 43 44 45 46 47 48 49 50

179
ASUS43 KBIS 290702
RWRND

NORTH DAKOTA REGIONAL WEATHER ROUNDUP
NATIONAL WEATHER SERVICE BISMARCK ND
200 AM CDT THU SEP 29 2016

NOTE: "FAIR" INDICATES FEW OR NO CLOUDS BELOW 12,000 FEET WITH NO
SIGNIFICANT WEATHER AND/OR OBSTRUCTIONS TO VISIBILITY.


NDZ001>003-009>011-017-290800-
NORTHWEST NORTH DAKOTA

CITY           SKY/WX    TMP DP  RH WIND       PRES   REMARKS
WILLISTON      CLEAR     58  37  45 SE12      30.27F
MINOT          CLEAR     44  43  96 E7        30.34F
MINOT AFB      CLEAR     42  41  96 SE6       30.34S
$$

NDZ018>021-031>035-040>046-290800-
SOUTHWEST NORTH DAKOTA

CITY           SKY/WX    TMP DP  RH WIND       PRES   REMARKS
BISMARCK       CLEAR     43  42  97 NE6       30.39R
DICKINSON      CLEAR     49  41  74 SE15      30.31S
GARRISON         N/A     47  46  97 SE7       30.35S
HETTINGER ARPT CLEAR     49  42  77 SE7       30.35S
$$

NDZ004>008-012>016-024-026-027-054-290800-
NORTHEAST NORTH DAKOTA

CITY           SKY/WX    TMP DP  RH WIND       PRES   REMARKS
GRAND FORKS    PTCLDY    42  39  89 CALM      30.43R FOG
GRND FRKS AFB  FAIR      40  39  97 NW2       30.43R
DEVILS LAKE    CLEAR     50  46  86 SE9       30.42S
$$

NDZ022-023-025-028>030-036>039-047>053-290800-
SOUTHEAST NORTH DAKOTA

CITY           SKY/WX    TMP DP  RH WIND       PRES   REMARKS
FARGO          CLEAR     45  42  89 E3        30.42S
JAMESTOWN      CLEAR     41  40  96 CALM      30.41S FOG
$$





USA.gov is the U.S. government's official web portal to all federal, state and local government web resources and services.